TVF4389 LOWW-LFPO

Flight info

Callsign TVF4389
Flight time 1h 44m
Altitude 34000
Route MEDIX DCT RENKA/N0451F380 L610 MAMOR DCT ASPAT DCT VIBOM DCT BETEX DCT IDOSA DCT TOLVU/N0450F390 DCT RAPOR DCT RENSA
Aircraft A20N/M-SDE2E3FGHIRWXY/LB1

Departure

Time 2026-04-22 09:33
Airport Vienna International Airport (LOWW)

Arrival

Time 2026-04-22 11:18
Airport Paris-Orly Airport (LFPO)
Time Latitude Longitude Altitude Speed Heading
2026-04-22 09:05 48.11652 16.56949 609 ft 0 kts 25°
2026-04-22 09:24 48.11648 16.56946 609 ft 3 kts 25°
2026-04-22 09:24 48.11632 16.56935 621 ft 3 kts 25°
2026-04-22 09:24 48.11615 16.56923 621 ft 3 kts 25°
2026-04-22 09:24 48.11601 16.56911 626 ft 2 kts 68°
2026-04-22 09:25 48.11600 16.56890 624 ft 0 kts 130°
2026-04-22 09:27 48.11595 16.56895 625 ft 6 kts 143°
2026-04-22 09:27 48.11558 16.56913 619 ft 5 kts 177°
2026-04-22 09:28 48.11534 16.56910 617 ft 3 kts 188°
2026-04-22 09:28 48.11469 16.56872 622 ft 11 kts 205°
2026-04-22 09:28 48.11409 16.56831 626 ft 7 kts 200°
2026-04-22 09:28 48.11348 16.56856 621 ft 12 kts 129°
2026-04-22 09:29 48.11315 16.56949 624 ft 9 kts 115°
2026-04-22 09:29 48.11289 16.57029 628 ft 8 kts 115°
2026-04-22 09:29 48.11263 16.57110 626 ft 9 kts 116°
2026-04-22 09:29 48.11237 16.57189 630 ft 10 kts 116°
2026-04-22 09:30 48.11207 16.57279 626 ft 10 kts 116°
2026-04-22 09:30 48.11174 16.57381 625 ft 12 kts 116°
2026-04-22 09:30 48.11136 16.57500 623 ft 13 kts 116°
2026-04-22 09:30 48.11097 16.57614 630 ft 12 kts 126°
2026-04-22 09:31 48.11029 16.57634 620 ft 9 kts 206°
2026-04-22 09:31 48.11021 16.57629 620 ft 0 kts 205°
2026-04-22 09:32 48.10975 16.57584 633 ft 10 kts 227°
2026-04-22 09:32 48.10947 16.57499 634 ft 8 kts 258°
2026-04-22 09:32 48.10954 16.57420 636 ft 2 kts 292°
2026-04-22 09:33 48.10969 16.57369 635 ft 28 kts 295°
2026-04-22 09:33 48.11180 16.56734 638 ft 108 kts 296°
2026-04-22 09:33 48.11639 16.55365 655 ft 177 kts 302°
2026-04-22 09:33 48.12213 16.53636 1300 ft 186 kts 299°
2026-04-22 09:34 48.12433 16.51705 2244 ft 204 kts 263°
2026-04-22 09:34 48.11666 16.49823 2941 ft 226 kts 219°
2026-04-22 09:34 48.10263 16.48670 3804 ft 234 kts 206°
2026-04-22 09:35 48.07319 16.46439 5628 ft 239 kts 218°
2026-04-22 09:35 48.05959 16.44869 6221 ft 259 kts 221°
2026-04-22 09:35 48.04049 16.42432 7008 ft 280 kts 223°
2026-04-22 09:35 48.03066 16.41155 7551 ft 285 kts 223°
2026-04-22 09:36 48.01556 16.39189 8462 ft 290 kts 223°
2026-04-22 09:36 48.00024 16.37191 9484 ft 294 kts 222°
2026-04-22 09:36 47.98509 16.35112 10425 ft 298 kts 228°
2026-04-22 09:36 47.97317 16.32483 10878 ft 317 kts 250°
2026-04-22 09:37 47.96925 16.29176 11279 ft 333 kts 276°
2026-04-22 09:37 47.97432 16.25780 12016 ft 339 kts 291°
2026-04-22 09:37 47.98226 16.22434 12895 ft 345 kts 293°
2026-04-22 09:37 47.99068 16.19045 13793 ft 351 kts 293°
2026-04-22 09:38 47.99922 16.15579 14613 ft 357 kts 293°
2026-04-22 09:38 48.00761 16.12125 15395 ft 361 kts 293°
2026-04-22 09:38 48.01617 16.08567 16196 ft 365 kts 293°
2026-04-22 09:38 48.02476 16.04977 17001 ft 369 kts 293°
2026-04-22 09:39 48.03344 16.01338 17764 ft 373 kts 293°
2026-04-22 09:39 48.04222 15.97642 18555 ft 378 kts 292°
2026-04-22 09:39 48.05104 15.93922 19229 ft 382 kts 292°
2026-04-22 09:39 48.05993 15.90164 19877 ft 386 kts 292°
2026-04-22 09:40 48.06893 15.86355 20544 ft 390 kts 292°
2026-04-22 09:40 48.07822 15.82523 21211 ft 393 kts 295°
2026-04-22 09:40 48.09033 15.78915 21838 ft 393 kts 306°
2026-04-22 09:40 48.10640 15.75600 22465 ft 394 kts 311°
2026-04-22 09:41 48.12370 15.72390 23082 ft 398 kts 312°
2026-04-22 09:41 48.14133 15.69168 23693 ft 402 kts 312°
2026-04-22 09:41 48.15914 15.65908 24173 ft 406 kts 312°
2026-04-22 09:41 48.17704 15.62618 24658 ft 409 kts 312°
2026-04-22 09:42 48.19501 15.59307 25137 ft 412 kts 312°
2026-04-22 09:42 48.21314 15.55955 25593 ft 414 kts 312°
2026-04-22 09:42 48.23115 15.52619 26075 ft 417 kts 312°
2026-04-22 09:42 48.24941 15.49228 26528 ft 419 kts 312°
2026-04-22 09:43 48.26802 15.45755 26941 ft 424 kts 311°
2026-04-22 09:43 48.28477 15.42138 27293 ft 431 kts 303°
2026-04-22 09:43 48.29762 15.38034 27723 ft 439 kts 292°
2026-04-22 09:43 48.30675 15.33638 28158 ft 443 kts 289°
2026-04-22 09:44 48.31458 15.29148 28567 ft 446 kts 287°
2026-04-22 09:44 48.32176 15.24599 28963 ft 449 kts 286°
2026-04-22 09:44 48.32873 15.20003 29347 ft 452 kts 285°
2026-04-22 09:44 48.33570 15.15396 29721 ft 454 kts 286°
2026-04-22 09:45 48.34279 15.10761 30099 ft 457 kts 286°
2026-04-22 09:45 48.35002 15.06094 30447 ft 459 kts 286°
2026-04-22 09:45 48.35733 15.01422 30851 ft 458 kts 286°
2026-04-22 09:45 48.36464 14.96770 31354 ft 455 kts 286°
2026-04-22 09:46 48.37190 14.92150 31861 ft 452 kts 286°
2026-04-22 09:46 48.37910 14.87562 32312 ft 450 kts 286°
2026-04-22 09:46 48.38626 14.82992 32740 ft 448 kts 286°
2026-04-22 09:46 48.39340 14.78429 33133 ft 447 kts 286°
2026-04-22 09:47 48.40050 14.73869 33481 ft 447 kts 286°
2026-04-22 09:47 48.40758 14.69317 33815 ft 447 kts 286°
2026-04-22 09:47 48.41463 14.64763 34205 ft 446 kts 286°
2026-04-22 09:47 48.42162 14.60229 34548 ft 444 kts 286°
2026-04-22 09:48 48.42862 14.55682 34844 ft 444 kts 286°
2026-04-22 09:48 48.43556 14.51161 35121 ft 444 kts 285°
2026-04-22 09:48 48.44241 14.46685 35400 ft 444 kts 285°
2026-04-22 09:48 48.44932 14.42158 35667 ft 443 kts 285°
2026-04-22 09:49 48.45622 14.37625 35908 ft 443 kts 285°
2026-04-22 09:49 48.46307 14.33108 36145 ft 442 kts 285°
2026-04-22 09:49 48.46992 14.28574 36412 ft 442 kts 285°
2026-04-22 09:49 48.47673 14.24065 36638 ft 442 kts 285°
2026-04-22 09:50 48.48353 14.19540 36861 ft 442 kts 285°
2026-04-22 09:50 48.49031 14.15024 37085 ft 442 kts 285°
2026-04-22 09:50 48.49707 14.10503 37310 ft 442 kts 285°
2026-04-22 09:50 48.50380 14.05992 37518 ft 441 kts 285°
2026-04-22 09:51 48.51051 14.01478 37743 ft 441 kts 285°
2026-04-22 09:51 48.51720 13.96962 37945 ft 441 kts 285°
2026-04-22 09:51 48.52388 13.92446 38132 ft 441 kts 285°
2026-04-22 09:51 48.53055 13.87920 38266 ft 443 kts 285°
2026-04-22 09:52 48.54386 13.78853 38265 ft 442 kts 285°
2026-04-22 09:52 48.55701 13.69837 38267 ft 442 kts 285°
2026-04-22 09:53 48.57016 13.60771 38271 ft 442 kts 285°
2026-04-22 09:53 48.58356 13.51722 38265 ft 440 kts 288°
2026-04-22 09:54 48.60192 13.42920 38266 ft 437 kts 291°
2026-04-22 09:54 48.62128 13.34214 38264 ft 437 kts 291°
2026-04-22 09:55 48.64085 13.25509 38268 ft 437 kts 291°
2026-04-22 09:55 48.66033 13.16789 38266 ft 437 kts 291°
2026-04-22 09:56 48.67950 13.08136 38263 ft 437 kts 291°
2026-04-22 09:56 48.69869 12.99424 38265 ft 436 kts 291°
2026-04-22 09:57 48.71780 12.90713 38266 ft 435 kts 291°
2026-04-22 09:57 48.73681 12.82014 38264 ft 435 kts 291°
2026-04-22 09:58 48.75579 12.73292 38268 ft 436 kts 291°
2026-04-22 09:58 48.77469 12.64570 38271 ft 436 kts 290°
2026-04-22 09:59 48.79353 12.55838 38272 ft 436 kts 290°
2026-04-22 09:59 48.81231 12.47097 38268 ft 436 kts 290°
2026-04-22 10:00 48.83092 12.38398 38269 ft 436 kts 290°
2026-04-22 10:00 48.84955 12.29650 38269 ft 435 kts 290°
2026-04-22 10:01 48.86812 12.20897 38271 ft 435 kts 290°
2026-04-22 10:01 48.88661 12.12141 38281 ft 435 kts 290°
2026-04-22 10:02 48.90507 12.03365 38276 ft 437 kts 290°
2026-04-22 10:02 48.92357 11.94531 38287 ft 438 kts 290°
2026-04-22 10:03 48.94186 11.85756 38293 ft 437 kts 290°
2026-04-22 10:03 48.96015 11.76941 38299 ft 436 kts 290°
2026-04-22 10:04 48.97836 11.68128 38286 ft 436 kts 290°
2026-04-22 10:04 48.99650 11.59307 38287 ft 436 kts 290°
2026-04-22 10:05 49.01458 11.50484 38260 ft 436 kts 290°
2026-04-22 10:05 49.03259 11.41648 38281 ft 435 kts 290°
2026-04-22 10:06 49.05048 11.32835 38285 ft 435 kts 290°
2026-04-22 10:06 49.06830 11.24016 38286 ft 435 kts 290°
2026-04-22 10:07 49.08604 11.15198 38292 ft 435 kts 290°
2026-04-22 10:07 49.10373 11.06363 38286 ft 435 kts 290°
2026-04-22 10:08 49.12134 10.97530 38313 ft 435 kts 290°
2026-04-22 10:08 49.13891 10.88677 38314 ft 435 kts 290°
2026-04-22 10:09 49.15639 10.79825 38333 ft 435 kts 290°
2026-04-22 10:09 49.17371 10.71019 38332 ft 435 kts 290°
2026-04-22 10:10 49.19108 10.62147 38331 ft 435 kts 289°
2026-04-22 10:10 49.20836 10.53280 38333 ft 435 kts 289°
2026-04-22 10:11 49.22556 10.44409 38314 ft 435 kts 289°
2026-04-22 10:11 49.24272 10.35521 38316 ft 435 kts 289°
2026-04-22 10:12 49.25979 10.26633 38299 ft 435 kts 289°
2026-04-22 10:12 49.27666 10.17815 38295 ft 434 kts 289°
2026-04-22 10:13 49.29356 10.08935 38290 ft 434 kts 289°
2026-04-22 10:13 49.31037 10.00059 38292 ft 434 kts 289°
2026-04-22 10:14 49.32713 9.91174 38294 ft 435 kts 289°
2026-04-22 10:14 49.34392 9.82230 38267 ft 436 kts 289°
2026-04-22 10:15 49.36063 9.73286 38289 ft 435 kts 289°
2026-04-22 10:15 49.37721 9.64361 38286 ft 435 kts 288°
2026-04-22 10:16 49.39370 9.55442 38283 ft 435 kts 288°
2026-04-22 10:16 49.41018 9.46492 38288 ft 435 kts 288°
2026-04-22 10:17 49.42643 9.37620 38281 ft 434 kts 288°
2026-04-22 10:17 49.44266 9.28714 38294 ft 431 kts 288°
2026-04-22 10:18 49.45876 9.19840 38292 ft 431 kts 288°
2026-04-22 10:18 49.47146 9.12432 38296 ft 432 kts 286°
2026-04-22 10:19 49.48439 9.03348 38300 ft 432 kts 284°
2026-04-22 10:19 49.49648 8.94334 38297 ft 432 kts 284°
2026-04-22 10:20 49.50873 8.85287 38305 ft 431 kts 284°
2026-04-22 10:20 49.52106 8.76274 38313 ft 431 kts 284°
2026-04-22 10:21 49.53342 8.67238 38314 ft 431 kts 284°
2026-04-22 10:21 49.54567 8.58221 38317 ft 430 kts 284°
2026-04-22 10:22 49.55786 8.49192 38318 ft 431 kts 284°
2026-04-22 10:22 49.56998 8.40150 38294 ft 431 kts 284°
2026-04-22 10:23 49.58202 8.31109 38302 ft 431 kts 284°
2026-04-22 10:23 49.59393 8.22112 38300 ft 431 kts 284°
2026-04-22 10:24 49.60582 8.13063 38298 ft 431 kts 284°
2026-04-22 10:24 49.61766 8.04004 38298 ft 431 kts 284°
2026-04-22 10:25 49.62943 7.94941 38296 ft 430 kts 284°
2026-04-22 10:25 49.64110 7.85891 38291 ft 430 kts 284°
2026-04-22 10:26 49.65274 7.76810 38290 ft 431 kts 284°
2026-04-22 10:26 49.66421 7.67802 38285 ft 431 kts 284°
2026-04-22 10:27 49.67567 7.58741 38279 ft 430 kts 284°
2026-04-22 10:27 49.68709 7.49645 38293 ft 430 kts 284°
2026-04-22 10:28 49.69841 7.40573 38293 ft 430 kts 284°
2026-04-22 10:28 49.70969 7.31474 38285 ft 430 kts 284°
2026-04-22 10:29 49.72086 7.22397 38256 ft 430 kts 284°
2026-04-22 10:29 49.73198 7.13304 38282 ft 429 kts 283°
2026-04-22 10:30 49.74291 7.04300 38268 ft 429 kts 283°
2026-04-22 10:30 49.75385 6.95225 38267 ft 429 kts 283°
2026-04-22 10:31 49.76471 6.86162 38260 ft 429 kts 283°
2026-04-22 10:31 49.77552 6.77076 38249 ft 430 kts 283°
2026-04-22 10:32 49.78627 6.67975 38260 ft 430 kts 283°
2026-04-22 10:32 49.79693 6.58877 38257 ft 429 kts 283°
2026-04-22 10:33 49.80753 6.49770 38265 ft 429 kts 283°
2026-04-22 10:33 49.81120 6.40523 38264 ft 435 kts 267°
2026-04-22 10:34 49.80175 6.31232 38256 ft 438 kts 262°
2026-04-22 10:34 49.78959 6.22086 38263 ft 436 kts 262°
2026-04-22 10:35 49.77693 6.12929 38273 ft 434 kts 262°
2026-04-22 10:35 49.76445 6.03790 38270 ft 434 kts 262°
2026-04-22 10:36 49.75209 5.94649 38266 ft 434 kts 262°
2026-04-22 10:36 49.73766 5.85559 38251 ft 437 kts 256°
2026-04-22 10:37 49.72812 5.81103 37953 ft 436 kts 255°
2026-04-22 10:37 49.70798 5.72271 36737 ft 437 kts 254°
2026-04-22 10:37 49.69760 5.67841 36072 ft 439 kts 253°
2026-04-22 10:38 49.68713 5.63397 35410 ft 441 kts 253°
2026-04-22 10:38 49.67660 5.58931 34744 ft 443 kts 253°
2026-04-22 10:38 49.66603 5.54442 34023 ft 446 kts 253°
2026-04-22 10:38 49.65541 5.49928 33250 ft 448 kts 253°
2026-04-22 10:39 49.64488 5.45463 32525 ft 448 kts 253°
2026-04-22 10:39 49.63421 5.40937 31768 ft 450 kts 253°
2026-04-22 10:39 49.62360 5.36388 31108 ft 449 kts 254°
2026-04-22 10:39 49.61356 5.31866 30629 ft 443 kts 255°
2026-04-22 10:40 49.60390 5.27370 30040 ft 440 kts 255°
2026-04-22 10:40 49.59446 5.22913 29460 ft 436 kts 255°
2026-04-22 10:40 49.58567 5.18468 28905 ft 430 kts 257°
2026-04-22 10:40 49.57765 5.14041 28359 ft 426 kts 258°
2026-04-22 10:41 49.57002 5.09650 27814 ft 422 kts 258°
2026-04-22 10:41 49.56254 5.05289 27257 ft 420 kts 258°
2026-04-22 10:41 49.55507 5.00957 26699 ft 417 kts 258°
2026-04-22 10:41 49.54754 4.96643 26144 ft 416 kts 257°
2026-04-22 10:42 49.53997 4.92354 25575 ft 414 kts 257°
2026-04-22 10:42 49.53237 4.88089 25032 ft 413 kts 257°
2026-04-22 10:42 49.52473 4.83832 24482 ft 412 kts 258°
2026-04-22 10:42 49.51708 4.79581 23917 ft 411 kts 257°
2026-04-22 10:43 49.50945 4.75347 23264 ft 411 kts 256°
2026-04-22 10:43 49.50180 4.71118 22679 ft 409 kts 257°
2026-04-22 10:43 49.49417 4.66914 22116 ft 406 kts 257°
2026-04-22 10:43 49.48658 4.62736 21534 ft 405 kts 256°
2026-04-22 10:44 49.47911 4.58634 20961 ft 403 kts 256°
2026-04-22 10:44 49.47154 4.54481 20375 ft 402 kts 256°
2026-04-22 10:44 49.46397 4.50337 19784 ft 401 kts 255°
2026-04-22 10:44 49.45641 4.46210 19183 ft 401 kts 255°
2026-04-22 10:45 49.44886 4.42098 18615 ft 399 kts 254°
2026-04-22 10:45 49.44129 4.37983 17973 ft 398 kts 254°
2026-04-22 10:45 49.43376 4.33899 17377 ft 396 kts 254°
2026-04-22 10:45 49.42625 4.29839 16789 ft 394 kts 254°
2026-04-22 10:46 49.41880 4.25814 16199 ft 391 kts 253°
2026-04-22 10:46 49.41136 4.21807 15632 ft 389 kts 253°
2026-04-22 10:46 49.40398 4.17844 15344 ft 379 kts 253°
2026-04-22 10:46 49.39688 4.14029 15253 ft 363 kts 253°
2026-04-22 10:47 49.39006 4.10372 15125 ft 350 kts 253°
2026-04-22 10:47 49.38352 4.06877 14956 ft 339 kts 253°
2026-04-22 10:47 49.37701 4.03415 14564 ft 338 kts 253°
2026-04-22 10:47 49.37049 3.99975 14251 ft 332 kts 252°
2026-04-22 10:48 49.36218 3.96691 13822 ft 330 kts 245°
2026-04-22 10:48 49.35272 3.93497 13424 ft 327 kts 243°
2026-04-22 10:48 49.34278 3.90375 13040 ft 324 kts 241°
2026-04-22 10:48 49.33259 3.87302 12787 ft 322 kts 240°
2026-04-22 10:49 49.32230 3.84251 12533 ft 321 kts 240°
2026-04-22 10:49 49.31205 3.81223 12278 ft 318 kts 240°
2026-04-22 10:49 49.30188 3.78216 12041 ft 318 kts 240°
2026-04-22 10:49 49.29172 3.75199 11789 ft 318 kts 240°
2026-04-22 10:50 49.28161 3.72193 11520 ft 318 kts 240°
2026-04-22 10:50 49.27150 3.69196 11286 ft 316 kts 239°
2026-04-22 10:50 49.26084 3.66273 11132 ft 313 kts 237°
2026-04-22 10:50 49.24987 3.63376 11012 ft 313 kts 237°
2026-04-22 10:51 49.23890 3.60502 10897 ft 314 kts 236°
2026-04-22 10:51 49.22787 3.57618 10776 ft 313 kts 236°
2026-04-22 10:51 49.21689 3.54747 10664 ft 311 kts 237°
2026-04-22 10:51 49.20598 3.51895 10532 ft 309 kts 237°
2026-04-22 10:52 49.19513 3.49060 10414 ft 309 kts 236°
2026-04-22 10:52 49.18416 3.46203 10304 ft 311 kts 236°
2026-04-22 10:52 49.17328 3.43367 10180 ft 309 kts 236°
2026-04-22 10:52 49.16239 3.40533 10063 ft 307 kts 237°
2026-04-22 10:53 49.15174 3.37764 9949 ft 307 kts 236°
2026-04-22 10:53 49.14090 3.34950 9826 ft 307 kts 236°
2026-04-22 10:53 49.12990 3.32098 9710 ft 308 kts 237°
2026-04-22 10:53 49.11906 3.29287 9598 ft 307 kts 237°
2026-04-22 10:54 49.10828 3.26495 9475 ft 304 kts 236°
2026-04-22 10:54 49.09794 3.23668 9372 ft 306 kts 243°
2026-04-22 10:54 49.08980 3.20646 9137 ft 308 kts 246°
2026-04-22 10:54 49.08249 3.17619 8885 ft 309 kts 249°
2026-04-22 10:55 49.07554 3.14490 8605 ft 306 kts 250°
2026-04-22 10:55 49.06900 3.11404 8356 ft 304 kts 250°
2026-04-22 10:55 49.06269 3.08374 8111 ft 304 kts 250°
2026-04-22 10:55 49.05628 3.05295 7856 ft 304 kts 250°
2026-04-22 10:56 49.04982 3.02218 7604 ft 305 kts 250°
2026-04-22 10:56 49.04332 2.99145 7365 ft 303 kts 250°
2026-04-22 10:56 49.03684 2.96104 7118 ft 301 kts 250°
2026-04-22 10:56 49.03035 2.93066 6868 ft 300 kts 250°
2026-04-22 10:57 49.02388 2.90039 6624 ft 301 kts 250°
2026-04-22 10:57 49.01739 2.87020 6386 ft 300 kts 250°
2026-04-22 10:57 49.01088 2.83997 6122 ft 300 kts 250°
2026-04-22 10:57 49.00428 2.80990 5870 ft 297 kts 246°
2026-04-22 10:58 48.99562 2.78144 5621 ft 293 kts 241°
2026-04-22 10:58 48.98644 2.75387 5367 ft 292 kts 239°
2026-04-22 10:58 48.97680 2.72661 5168 ft 291 kts 237°
2026-04-22 10:58 48.96690 2.69959 5033 ft 291 kts 237°
2026-04-22 10:59 48.95693 2.67284 4917 ft 290 kts 237°
2026-04-22 10:59 48.94694 2.64619 4783 ft 290 kts 237°
2026-04-22 10:59 48.93697 2.61958 4655 ft 289 kts 237°
2026-04-22 10:59 48.93038 2.60196 4569 ft 288 kts 237°
2026-04-22 11:00 48.91728 2.56683 4388 ft 288 kts 237°
2026-04-22 11:00 48.91059 2.54892 4305 ft 288 kts 237°
2026-04-22 11:00 48.90069 2.52243 4176 ft 287 kts 237°
2026-04-22 11:00 48.89097 2.49641 4058 ft 286 kts 237°
2026-04-22 11:01 48.88112 2.47001 4023 ft 278 kts 237°
2026-04-22 11:01 48.87192 2.44522 4020 ft 261 kts 237°
2026-04-22 11:01 48.86340 2.42222 4021 ft 246 kts 236°
2026-04-22 11:01 48.85509 2.39989 4022 ft 241 kts 236°
2026-04-22 11:02 48.84669 2.37752 3994 ft 242 kts 236°
2026-04-22 11:02 48.83831 2.35531 3997 ft 242 kts 236°
2026-04-22 11:02 48.82995 2.33316 3996 ft 242 kts 236°
2026-04-22 11:02 48.82169 2.31123 3988 ft 242 kts 236°
2026-04-22 11:03 48.81333 2.28903 3993 ft 241 kts 236°
2026-04-22 11:03 48.80508 2.26707 4005 ft 236 kts 237°
2026-04-22 11:03 48.79729 2.24620 4017 ft 220 kts 236°
2026-04-22 11:03 48.78974 2.22608 4000 ft 219 kts 236°
2026-04-22 11:04 48.78214 2.20597 3997 ft 220 kts 236°
2026-04-22 11:04 48.77457 2.18595 3987 ft 219 kts 236°
2026-04-22 11:04 48.76698 2.16593 4003 ft 220 kts 235°
2026-04-22 11:04 48.75953 2.14622 3992 ft 206 kts 235°
2026-04-22 11:05 48.75282 2.12822 3990 ft 185 kts 235°
2026-04-22 11:05 48.74668 2.11176 3997 ft 176 kts 235°
2026-04-22 11:05 48.74067 2.09591 4001 ft 175 kts 234°
2026-04-22 11:05 48.73458 2.07998 3991 ft 175 kts 233°
2026-04-22 11:06 48.72844 2.06399 3991 ft 176 kts 233°
2026-04-22 11:06 48.72231 2.04801 3994 ft 176 kts 234°
2026-04-22 11:06 48.71616 2.03190 4003 ft 176 kts 234°
2026-04-22 11:06 48.71000 2.01571 3994 ft 175 kts 234°
2026-04-22 11:07 48.70405 2.00001 3988 ft 175 kts 234°
2026-04-22 11:07 48.69796 1.98395 3989 ft 175 kts 234°
2026-04-22 11:07 48.69185 1.96790 4002 ft 176 kts 234°
2026-04-22 11:07 48.68572 1.95178 3992 ft 176 kts 234°
2026-04-22 11:08 48.67916 1.93625 3985 ft 173 kts 222°
2026-04-22 11:08 48.67028 1.92471 3987 ft 164 kts 199°
2026-04-22 11:08 48.65996 1.91960 3985 ft 151 kts 173°
2026-04-22 11:08 48.65008 1.92134 3988 ft 139 kts 149°
2026-04-22 11:09 48.64215 1.92860 3994 ft 131 kts 130°
2026-04-22 11:09 48.63564 1.93815 3998 ft 130 kts 127°
2026-04-22 11:09 48.62931 1.94790 3991 ft 130 kts 126°
2026-04-22 11:09 48.62304 1.95759 3988 ft 131 kts 127°
2026-04-22 11:10 48.61667 1.96741 3986 ft 131 kts 127°
2026-04-22 11:10 48.61037 1.97756 4002 ft 129 kts 120°
2026-04-22 11:10 48.60848 1.98965 3980 ft 122 kts 84°
2026-04-22 11:10 48.61034 2.00240 3982 ft 124 kts 76°
2026-04-22 11:11 48.61337 2.01478 3990 ft 127 kts 71°
2026-04-22 11:11 48.61712 2.02670 3990 ft 127 kts 67°
2026-04-22 11:11 48.62128 2.03851 3986 ft 127 kts 67°
2026-04-22 11:11 48.62553 2.05043 3990 ft 127 kts 66°
2026-04-22 11:12 48.62971 2.06220 3994 ft 127 kts 67°
2026-04-22 11:12 48.63388 2.07397 3964 ft 128 kts 67°
2026-04-22 11:12 48.63811 2.08600 3832 ft 134 kts 67°
2026-04-22 11:12 48.64252 2.09845 3641 ft 134 kts 66°
2026-04-22 11:13 48.64686 2.11061 3466 ft 131 kts 67°
2026-04-22 11:13 48.65119 2.12282 3258 ft 132 kts 66°
2026-04-22 11:13 48.65553 2.13508 3081 ft 133 kts 65°
2026-04-22 11:13 48.65989 2.14735 2882 ft 131 kts 66°
2026-04-22 11:14 48.66420 2.15950 2719 ft 131 kts 65°
2026-04-22 11:14 48.66848 2.17160 2536 ft 130 kts 65°
2026-04-22 11:14 48.67274 2.18361 2348 ft 129 kts 65°
2026-04-22 11:14 48.67693 2.19544 2179 ft 130 kts 65°
2026-04-22 11:15 48.68119 2.20744 2004 ft 128 kts 66°
2026-04-22 11:15 48.68540 2.21935 1820 ft 129 kts 67°
2026-04-22 11:15 48.68966 2.23138 1643 ft 130 kts 65°
2026-04-22 11:15 48.69397 2.24353 1468 ft 130 kts 67°
2026-04-22 11:16 48.69821 2.25548 1285 ft 127 kts 65°
2026-04-22 11:16 48.70233 2.26714 1110 ft 122 kts 65°
2026-04-22 11:16 48.70628 2.27830 958 ft 119 kts 66°
2026-04-22 11:16 48.71020 2.28938 796 ft 121 kts 65°
2026-04-22 11:17 48.71420 2.30071 638 ft 122 kts 67°
2026-04-22 11:17 48.71821 2.31203 469 ft 122 kts 66°
2026-04-22 11:17 48.72214 2.32315 319 ft 118 kts 66°
2026-04-22 11:17 48.72564 2.33326 302 ft 98 kts 65°
2026-04-22 11:18 48.72749 2.33883 303 ft 29 kts 76°
2026-04-22 11:18 48.72790 2.34170 300 ft 25 kts 83°
2026-04-22 11:18 48.72808 2.34407 301 ft 23 kts 83°
2026-04-22 11:18 48.72828 2.34654 297 ft 24 kts 79°
2026-04-22 11:19 48.72843 2.34789 298 ft 10 kts 81°
2026-04-22 11:19 48.72853 2.34896 300 ft 11 kts 82°
2026-04-22 11:19 48.72863 2.35017 297 ft 12 kts 88°
2026-04-22 11:19 48.72843 2.35129 301 ft 10 kts 118°
2026-04-22 11:20 48.72791 2.35204 298 ft 11 kts 149°
2026-04-22 11:20 48.72719 2.35246 301 ft 11 kts 163°
2026-04-22 11:20 48.72642 2.35279 298 ft 12 kts 165°
2026-04-22 11:20 48.72559 2.35314 298 ft 13 kts 165°
2026-04-22 11:21 48.72472 2.35353 300 ft 13 kts 155°
2026-04-22 11:21 48.72427 2.35462 296 ft 13 kts 85°
2026-04-22 11:21 48.72447 2.35590 299 ft 11 kts 74°
2026-04-22 11:21 48.72469 2.35710 297 ft 12 kts 75°
2026-04-22 11:22 48.72482 2.35842 297 ft 13 kts 94°
2026-04-22 11:22 48.72471 2.35984 297 ft 14 kts 88°
2026-04-22 11:22 48.72491 2.36131 301 ft 15 kts 73°
2026-04-22 11:22 48.72520 2.36286 300 ft 16 kts 78°
2026-04-22 11:23 48.72551 2.36446 300 ft 16 kts 72°
2026-04-22 11:23 48.72581 2.36614 299 ft 17 kts 75°
2026-04-22 11:23 48.72615 2.36757 300 ft 10 kts 65°
2026-04-22 11:23 48.72640 2.36859 299 ft 11 kts 72°
2026-04-22 11:24 48.72671 2.36895 300 ft 4 kts 13°
2026-04-22 11:24 48.72696 2.36896 297 ft 3 kts
2026-04-22 11:24 48.72713 2.36901 299 ft 0 kts 10°